Location: Sungai Bunut
(2.6333°N, 113.7333°E)
Time: 20:16:24
(UTC+00:00)

Vanguard 3 - Pass Details

Date: 07 December 2023
Orbit: 508 x 3239 km, 33.4° (Epoch: 24 February)

Event Time Altitude Azimuth Distance (km) Brightness Sun altitude
Rises 05:25:54 0° 208° (SSW) 5,617 11.9 59.6°
Reaches altitude 10° 05:32:04 10° 186° (S) 5,166 11.8 58.7°
Maximum altitude 05:40:22 16° 155° (SSE) 5,252 11.7 57.5°
Drops below altitude 10° 05:49:54 10° 124° (ESE) 6,098 11.7 56.0°
Sets 05:58:27 0° 105° (ESE) 7,196 11.8 54.6°
